Location: Foligno
(42.9600°N, 12.7050°E)
Time: 11:32:25
(UTC+02:00)

ISS - Pass Details

Date: 12 May 2021
Orbit: 417 x 422 km, 51.6° (Epoch: 15 May)

Event Time Altitude Azimuth Distance (km) Brightness Sun altitude
Rises 04:26:02 0° 305° (NW) 2,370 -0.1 -13.5°
Reaches altitude 10° 04:28:14 10° 314° (NW) 1,505 -1.0 -13.2°
Maximum altitude 04:31:24 37° 24° (NNE) 674 -2.1 -12.8°
Drops below altitude 10° 04:34:34 10° 94° (E) 1,502 -0.2 -12.3°
Sets 04:36:46 0° 102° (ESE) 2,364 0.6 -12.0°
